Weather in Gibraltar

Gibraltar     36°07′59″N   5°21′11″W
В апреле 2022 года жителям России запретили посещать сайт meteo.paraplan.net по решению Генеральной прокуратуры. Аудитория сайта уменьшилась в 10 раз. Владельцы сайта не видят смысла в поддержке погодного сервера в таких условиях. Сайт будет закрыт в октябре.
temp.,
°C
wind,
m/s
gust,
m/s
humid.,
%
clouds,
%
prec.,
mm/h
press.,
hPa
HPBL,
m
6 october, thu
thu623:00+21e58910 0.0 1023179
02:00+20ene610910 0.0 1023264
05:00+20ene710890 0.0 1022283
08:00+20ene710870 0.0 1022331
11:00+20ene811860 0.0 1023352
14:00+20ene811870 0.0 1023386
17:00+20ene812870 0.0 1021378
20:00+21ene811840 0.0 1021307
7 october, fri
fri723:00+21ene8128283 0.0 1022312
02:00+21ene710815 0.0 1021314
05:00+21ene81183100 0.0 1020459
08:00+21ene71079100 0.0 1019316
11:00+21ene6976100 0.0 1020264
14:00+21ene7107890 0.0 1019299
17:00+20ene698289 0.0 1017259
20:00+21ene588253 0.0 1017161
8 october, sat
sat823:00+21e5883100 0.0 1018168
02:00+21ene7107996 0.0 1017216
05:00+21ene71079100 0.0 1016253
08:00+21ene6108037 0.0 1016266
11:00+21ene71078100 0.0 1017272
14:00+21ene71081100 0.0 1018269
17:00+20ene71084100 0.0 1016255
20:00+21ene6983100 0.0 1016185
9 october, sun
sun923:00+21e710846 0.0 1017238
02:00+21ene711844 0.0 1016270
05:00+21ene69821 0.1 1016208
08:00+21ene688326 0.1 1016183
11:00+21ene578299 0.0 1017176
14:00+21ene688383 0.0 1018185
17:00+20e568795 0.0 1016176
20:00+20e3489100 0.0 101763
10 october, mon
mon1023:00+20ene3389100 0.0 101828
02:00+20ene229173 0.1 101844
05:00+20nne2189100 0.2 101737
08:00+20ne1188100 0.2 101732
11:00+20e228593 0.0 101874
14:00+20e338859 0.0 1018129
17:00+20e3493100 0.0 1017129
20:00+20ese1193100 0.0 101711